Weather in Sarnen

Switzerland     46°53′52″N   8°14′47″E
temp.,
°C
wind,
m/s
gust,
m/s
humid.,
%
clouds,
%
prec.,
mm/h
press.,
hPa
HPBL,
m
26 october, tue
tue2623:00+6ssw22755 0.0 102422
02:00+5ssw227471 0.0 102422
05:00+6ssw2177100 0.0 102421
08:00+6w118192 0.1 102413
11:00+7ssw118897 0.6 102564
14:00+9s118361 0.6 1025256
17:00+11ne11776 0.1 1024165
20:00+6s229294 0.1 102618
27 october, wed
wed2723:00+5s229042 0.0 102714
02:00+4s228725 0.0 102714
05:00+3s118639 0.0 102711
08:00+3s118469 0.0 102711
11:00+9nne11645 0.0 1026255
14:00+12nne21595 0.0 1024514
17:00+11nne12720 0.0 102398
20:00+6s21880 0.0 102511
28 october, thu
thu2823:00+5s22760 0.0 102517
02:00+5s22620 0.0 102416
05:00+5s22561 0.0 102315
08:00+5s22596 0.0 102314
11:00+11n104811 0.0 1021181
14:00+14n114528 0.0 1019413
17:00+12ne116416 0.0 101822
20:00+7s2271100 0.0 101917
29 october, fri
fri2923:00+7s226388 0.0 101917
02:00+6s2257100 0.0 101817
05:00+6ssw115799 0.0 101713
08:00+6s225892 0.0 101717
11:00+12n115070 0.0 1015166
14:00+15n214693 0.0 1013496
17:00+13n116594 0.0 101418
20:00+8s2264100 0.0 101527
30 october, sat
sat3023:00+7ssw2258100 0.0 101723
02:00+7s225797 0.0 101625
05:00+6s2261100 0.0 101627
08:00+7s2266100 0.0 101622
11:00+11n0162100 0.0 1015121
14:00+11ne1164100 0.0 1015210
17:00+11se1172100 0.0 101463
20:00+9s1272100 0.0 101532